星链-2491 (STARLINK-2491 )

导读 | 星芒AI

STARLINK-2491 是 SpaceX Starlink 卫星互联网项目中的第2491颗卫星,属于低轨卫星群的一部分,旨在为全球用户提供高速互联网服务。该卫星于2024年发射,运行在约550公里高的近地轨道,采用先进通信技术,支持宽带数据传输。Starlink 项目致力于构建覆盖全球的卫星网络,尤其服务于偏远地区。STARLINK-2491 的部署进一步增强了网络的稳定性和覆盖范围。

基本信息
目录编号:
48148
目录名称:
STARLINK-2491
国际标识:
2021-027BJ
轨道中心:
EARTH
卫星名称:
星链-2491
卫星全名:
星链-2491 (STARLINK-2491 )
卫星状态:
在轨 (已飞行1667 天)
发射日期:
2021-04-07 UTC
国别 :
美国 (US)
星等 :
--
轨道信息
数据来源 国际轨道数据
星历时间: 2025-10-30T07:24:23+0800
13小时前
查看轨道信息
半长轴: 6925.321km
偏心率: 0.0002158
轨道倾角: 53.055°
近地点辐角 93.661°
升交点赤经 38.416°
平近点角 266.463°
近地点: 545.691km
远地点: 548.681km
周期: 95.592分钟
每日圈数: 15.064092
详细信息
固有亮度:
5
最大亮度:
2.5
卫星平台:
Starlink V1.0
覆盖范围:
全球
运营商:
太空探索技术公司
运营商所在国:
美国
制造商(研发单位):
太空探索技术公司
制造商所在国:
美国
使用方式:
暂无
卫星简介
星链(Starlink)计划是由太空探索技术公司(SpaceX)提出的一个巨型低轨卫星互联网星座项目,计划在2019年至2024年间在太空搭建由约1.2万颗卫星组成的“星链”网络,其中1584颗将部署在地球上空550千米处的近地轨道,并从2020年开始工作。该卫星仍在工作。
2D轨道图
3D轨道图
轨道高度分析图
轨道倾角分析图
轨道综合分析图
查看轨道综合分析图